Fort Smith, AR

1:14 PM CDT on August 17, 2017 (GMT -0500)
Fort Smith Regional

Weather History for KFSM - January, 2012

Change the Weather History Date:

Friday, January 6, 2012

  Actual Average Record
Temperature  
Mean Temperature 51 °F 39 °F  
Max Temperature 69 °F 49 °F 76 °F (2008)
Min Temperature 32 °F 29 °F 3 °F (1912)
Degree Days  
Heating Degree Days 14 26  
Month to date heating degree days 126 156  
Since 1 July heating degree days 1181 1455  
Growing Degree Days 2 (Base 50)    
Moisture  
Dew Point 39 °F    
Average Humidity 70    
Maximum Humidity 92    
Minimum Humidity 47    
Precipitation  
Precipitation 0.00 in 0.09 in 1.09 in (1988)
Month to date precipitation 0.00 0.54  
Year to date precipitation 0.00 0.54  
Sea Level Pressure  
Sea Level Pressure 29.94 in    
Wind  
Wind Speed 4 mph (ESE)    
Max Wind Speed 18 mph    
Max Gust Speed 24 mph    
Visibility 10 miles    
Events      
T = Trace of Precipitation, MM = Missing Value Source: NWS Daily Summary

Daily Weather History Graph

Daily Weather History Graph

Search for Another Location

Airport or City:

Trip Planner

Search our weather history database for the weather conditions in past years. The results will help you decide how hot, cold, wet, or windy it might be!

Date:

Astronomy

Jan. 06, 2012 Rise Set
Actual Time 7:26 AM CST 5:19 PM CST
Civil Twilight 6:58 AM CST 5:47 PM CST
Nautical Twilight 6:27 AM CST 6:19 PM CST
Astronomical Twilight 5:56 AM CST 6:50 PM CST
Moon 3:11 PM CST (1/6) 5:06 AM CST (1/6)
Length of Visible Light 10h 48m
Length of Day
9h 52m
Waxing Gibbous, 93% of the Moon is Illuminated
Jan 6
Waxing Gibbous
Jan 9
Full
Jan 16
Last Quarter
Jan 23
New
Jan 30
First Quarter

Hourly Weather History & Observations

Time (CST) Temp. Windchill Dew Point Humidity Pressure Visibility Wind Dir Wind Speed Gust Speed Precip Events Conditions
12:53 AM 37.0 °F - 28.9 °F 73% 30.02 in 10.0 mi Calm Calm - N/A   Clear
1:53 AM 35.6 °F - 28.4 °F 75% 30.00 in 10.0 mi Calm Calm - N/A   Clear
2:53 AM 37.0 °F 34.5 °F 30.0 °F 76% 30.00 in 10.0 mi NE 3.5 mph - N/A   Clear
3:53 AM 35.1 °F 32.2 °F 30.0 °F 82% 29.99 in 10.0 mi East 3.5 mph - N/A   Clear
4:53 AM 34.0 °F - 28.9 °F 82% 30.00 in 10.0 mi Calm Calm - N/A   Clear
5:53 AM 34.0 °F - 28.0 °F 79% 29.99 in 10.0 mi Calm Calm - N/A   Clear
6:53 AM 34.0 °F 31.0 °F 28.9 °F 82% 29.99 in 10.0 mi ENE 3.5 mph - N/A   Clear
7:53 AM 34.0 °F 31.0 °F 28.9 °F 82% 29.99 in 10.0 mi NE 3.5 mph - N/A   Clear
8:53 AM 39.0 °F 36.8 °F 33.1 °F 79% 29.99 in 10.0 mi East 3.5 mph - N/A   Clear
9:53 AM 45.0 °F 42.6 °F 34.0 °F 65% 29.99 in 10.0 mi NE 4.6 mph - N/A   Clear
10:53 AM 52.0 °F - 37.0 °F 57% 29.97 in 10.0 mi NE 5.8 mph - N/A   Clear
11:53 AM 61.0 °F - 44.1 °F 54% 29.92 in 10.0 mi Calm Calm - N/A   Mostly Cloudy
12:53 PM 66.9 °F - 51.1 °F 57% 29.88 in 10.0 mi SW 13.8 mph 21.9 mph N/A   Overcast
1:53 PM 69.1 °F - 51.1 °F 53% 29.86 in 10.0 mi SSW 13.8 mph 20.7 mph N/A   Scattered Clouds
2:53 PM 69.1 °F - 48.9 °F 49% 29.84 in 10.0 mi SSW 16.1 mph 23.0 mph N/A   Clear
3:53 PM 68.0 °F - 48.0 °F 49% 29.85 in 10.0 mi South 13.8 mph - N/A   Clear
4:53 PM 64.0 °F - 46.9 °F 54% 29.86 in 10.0 mi South 8.1 mph - N/A   Clear
5:53 PM 59.0 °F - 46.9 °F 64% 29.87 in 10.0 mi South 6.9 mph - N/A   Clear
6:53 PM 55.0 °F - 46.0 °F 72% 29.90 in 10.0 mi Calm Calm - N/A   Clear
7:53 PM 48.0 °F - 43.0 °F 83% 29.92 in 10.0 mi Calm Calm - N/A   Clear
8:53 PM 50.0 °F - 45.0 °F 83% 29.93 in 10.0 mi Calm Calm - N/A   Clear
9:53 PM 46.0 °F - 43.0 °F 89% 29.93 in 10.0 mi Calm Calm - N/A   Clear
10:53 PM 45.0 °F - 42.1 °F 90% 29.92 in 9.0 mi Calm Calm - N/A   Mostly Cloudy
11:53 PM 45.0 °F - 42.1 °F 90% 29.92 in 8.0 mi Calm Calm - N/A   Scattered Clouds